Flag for Greenland Weather past 2 weeks in Nuuk, Greenland

Now
14 °F

Snow flurries. Passing clouds.


Feels Like: -2 °F
Forecast: 10 / 18 °F
Wind: 16 mph from Southeast

Location: Godthaab / Nuuk

Current Time: Dec 18, 2014 at 4:31:33 AM

Latest Report: Dec 18, 2014 at 3:50 AM


Visibility: N/A

Pressure: 29.47 "Hg

Humidity: 62%

Dew point: 3 °F

Location of NuukLocation

Historic Weather in Nuuk — Graph

°F

Nuuk temperature yesterday

Maximum temperature yesterday: 12 °F (at 12:50 AM)
Minimum temperature yesterday: 9 °F (at 2:50 AM)
Average temperature yesterday: 9 °F

Past Weeks' High & Low Weather Summary

 TemperatureHumidityPressure
High45 °F (Dec 3, 3:50 PM)100% (Dec 5, 3:50 PM)30.45 "Hg (Dec 5, 3:50 PM)
Low9 °F (Dec 17, 2:50 AM)41% (Dec 5, 6:50 AM)28.59 "Hg (Dec 5, 9:50 AM)
Average20 °F69%29.52 "Hg
* Reported Dec 3 2:50 AM — Dec 18 2:50 AM, Nuuk, Weather by CustomWeather, © 2014

Note: Actual official high and low records may vary slightly from our data, if they occured in-between our weather recording intervals... More about our weather records

Advertising

Nuuk weather history for previous 24 hours

 ConditionsComfort  
Time TempWeatherWind HumidityBarometerVisibility
2:50 AM
Dec 18
12 °FLight snow. Overcast.20 mph67%29.50 "Hg2 mi
1:50 AM12 °FSnow flurries. Overcast.18 mph67%29.53 "Hg3 mi
12:50 AM10 °FOvercast.15 mph67%29.56 "Hg5 mi
11:50 PM
Dec 17
10 °FSnow flurries. Partly cloudy.13 mph61%29.59 "HgN/A
10:50 PM10 °FPassing clouds.10 mph61%29.62 "HgN/A
9:50 PM9 °FPassing clouds.14 mph61%29.65 "HgN/A
8:50 PM10 °FPassing clouds.9 mph61%29.65 "HgN/A
7:50 PM10 °FOvercast.12 mph61%29.68 "HgN/A
6:50 PM9 °FPassing clouds.13 mph61%29.71 "HgN/A
5:50 PM9 °FPassing clouds.13 mph61%29.71 "HgN/A
4:50 PM9 °FPassing clouds.8 mph56%29.74 "HgN/A
3:50 PM9 °FPassing clouds.13 mph56%29.74 "HgN/A
2:50 PM9 °FPassing clouds.10 mph61%29.74 "HgN/A
1:50 PM9 °FPassing clouds.13 mph61%29.74 "HgN/A
12:50 PM9 °FPassing clouds.12 mph61%29.77 "HgN/A
11:50 AM9 °FPassing clouds.10 mph56%29.77 "HgN/A
10:50 AM9 °FPassing clouds.12 mph61%29.77 "HgN/A
9:50 AM9 °FPassing clouds.13 mph56%29.74 "HgN/A
8:50 AM9 °FPassing clouds.12 mph56%29.74 "HgN/A
7:50 AM10 °FPassing clouds.14 mph56%29.74 "HgN/A
6:50 AM9 °FClear.13 mph56%29.74 "HgN/A
5:50 AM9 °FFrigid.15 mph61%29.74 "HgN/A
4:50 AM10 °FPassing clouds.14 mph67%29.71 "HgN/A
Weather by CustomWeather, © 2014

See weather overviewHow to use our weather pages